Location: Arleux
(50.3632°N, 2.8721°E)
Time: 01:55:47
(UTC+00:00)

N. Korean satellite - Pass Details

Date: 10 March 2021
Orbit: 453 x 499 km, 97.2° (Epoch: 11 April)

Event Time Altitude Azimuth Distance (km) Brightness Sun altitude
Rises 05:22:11 0° 13° (NNE) 2,545 10.5 -8.9°
Reaches altitude 10° 05:24:15 10° 14° (NNE) 1,669 9.5 -8.6°
Maximum altitude 05:27:51 87° 103° (ESE) 494 6.6 -8.0°
Drops below altitude 10° 05:31:28 10° 193° (SSW) 1,679 9.1 -7.4°
Sets 05:33:32 0° 194° (SSW) 2,563 10.1 -7.1°
